Location: Driftwood Observatory
(30.0611°N, 98.0028°W)
Time: 08:28:04
(UTC-06:00)

N. Korean satellite - Visible Passes

Search period start: 17 December 2018 00:00
Search period end: 27 December 2018 00:00
Orbit: 456 x 511 km, 97.2° (Epoch: 17 December)

Date Brightness Start Highest point End Pass type
(mag) Time Alt. Az. Time Alt. Az. Time Alt. Az.
17 Dec 6.5 06:46:05 10° N 06:49:42 82° WNW 06:53:22 10° SSW visible
17 Dec 9.3 18:50:19 10° SSW 18:52:58 21° W 18:55:37 10° NW visible
18 Dec 8.1 06:21:42 10° NNE 06:25:09 40° E 06:28:37 10° S visible
18 Dec 7.4 18:25:01 10° S 18:28:19 50° W 18:31:40 10° NNW visible
19 Dec 9.7 05:57:55 10° NE 06:00:31 18° E 06:03:07 10° SE visible
19 Dec 6.4 18:00:24 10° SSE 18:03:45 61° ENE 18:07:10 10° N visible
20 Dec 10.1 19:11:46 10° WSW 19:12:42 11° W 19:13:39 10° WNW visible
21 Dec 6.7 06:41:09 10° NNE 06:44:49 84° ESE 06:48:31 10° S visible
21 Dec 9.0 18:45:10 10° SSW 18:48:00 24° W 18:50:53 10° NW visible
22 Dec 8.5 06:16:51 10° NNE 06:20:14 35° E 06:23:38 10° SSE visible
22 Dec 7.1 18:20:01 10° S 18:23:22 61° W 18:26:47 10° NNW visible
23 Dec 9.8 05:53:14 10° NE 05:55:35 16° E 05:57:56 10° SE visible
24 Dec 9.9 19:06:05 10° WSW 19:07:43 13° W 19:09:21 10° WNW visible
25 Dec 7.0 06:36:13 10° NNE 06:39:54 71° E 06:43:36 10° S visible
25 Dec 8.7 18:40:01 10° SSW 18:43:01 29° W 18:46:04 10° NW visible
26 Dec 8.8 06:12:00 10° NE 06:15:17 30° E 06:18:35 10° SSE visible
26 Dec 6.7 18:14:58 10° S 18:18:23 73° W 18:21:51 10° NNW visible
